This is the latest recevied weather packets stored in our database for station/object NR6G-12. If no packets are shown the sender has not sent any weather packets the latest 10 day(s).
| Time | Temp. | Humidity | Pressure | Rain* | Wind** | Luminosity | Snow |
|---|---|---|---|---|---|---|---|
| 1788550334 | 15.56° C | 73% | 1016 hPa | 0 mm | - | - | - |
| 1788549974 | 15.56° C | 73% | 1016.2 hPa | 0 mm | - | - | - |
| 1788549614 | 15.56° C | 74% | 1016.1 hPa | 0 mm | - | - | - |
| 1788549254 | 15.56° C | 73% | 1016.1 hPa | 0 mm | - | - | - |
| 1788548894 | 15.56° C | 73% | 1016.2 hPa | 0 mm | - | - | - |
| 1788548534 | 15° C | 75% | 1016.1 hPa | 0 mm | - | - | - |
| 1788548174 | 15° C | 75% | 1016.1 hPa | 0 mm | - | - | - |
| 1788547814 | 15° C | 75% | 1016 hPa | 0 mm | - | - | - |
| 1788547455 | 14.44° C | 76% | 1016 hPa | 0 mm | - | - | - |
| 1788547094 | 14.44° C | 77% | 1015.9 hPa | 0 mm | - | - | - |
| 1788546734 | 14.44° C | 77% | 1016 hPa | 0 mm | - | - | - |
| 1788546374 | 14.44° C | 77% | 1016 hPa | 0 mm | - | - | - |
| 1788546014 | 14.44° C | 76% | 1016 hPa | 0 mm | - | - | - |
| 1788545654 | 14.44° C | 74% | 1015.9 hPa | 0 mm | - | - | - |
| 1788545294 | 15° C | 72% | 1015.8 hPa | 0 mm | - | - | - |
| 1788544574 | 15° C | 69% | 1015.8 hPa | 0 mm | - | - | - |
| 1788544214 | 15° C | 68% | 1015.7 hPa | 0 mm | - | - | - |
| 1788543854 | 15° C | 67% | 1015.5 hPa | 0 mm | - | - | - |
| 1788543494 | 15° C | 66% | 1015.6 hPa | 0 mm | - | - | - |
| 1788543134 | 15.56° C | 65% | 1015.5 hPa | 0 mm | - | - | - |
| 1788542774 | 15.56° C | 65% | 1015.5 hPa | 0 mm | - | - | - |
| 1788542414 | 15.56° C | 65% | 1015.4 hPa | 0 mm | - | - | - |
| 1788542055 | 15.56° C | 65% | 1015.5 hPa | 0 mm | - | - | - |
| 1788541694 | 15.56° C | 65% | 1015.4 hPa | 0 mm | - | - | - |
| 1788540254 | 15.56° C | 63% | 1015.4 hPa | 0 mm | - | - | - |
* Rain latest hour (hover to see other rain measurements)
** Current wind speed in m/s (hover to see current wind gust speed)